Weather History for KIWD - October, 2013

Change the Weather History Date:

Sunday, October 27, 2013

  Actual Average Record
Temperature  
Mean Temperature 40 °F -  
Max Temperature 46 °F 46 °F 68 °F (1998)
Min Temperature 33 °F 33 °F 21 °F (2003)
Degree Days  
Heating Degree Days 26    
Moisture  
Dew Point 28 °F    
Average Humidity 69    
Maximum Humidity 81    
Minimum Humidity 50    
Precipitation  
Precipitation 0.02 in - - ()
Sea Level Pressure  
Sea Level Pressure 29.88 in    
Wind  
Wind Speed 8 mph (West)    
Max Wind Speed 17 mph    
Max Gust Speed 23 mph    
Visibility 10 miles    
Events      
Averages and records for this station are not official NWS values.
T = Trace of Precipitation, MM = Missing Value Source: NWS Daily Summary

Daily Weather History Graph

Daily Weather History Graph

Search for Another Location

Airport or City:

Trip Planner

Search our weather history database for the weather conditions in past years. The results will help you decide how hot, cold, wet, or windy it might be!

Date:

Astronomy

Oct. 27, 2013 Rise Set
Actual Time 7:35 AM CDT 5:52 PM CDT
Civil Twilight 7:04 AM CDT 6:23 PM CDT
Nautical Twilight 6:28 AM CDT 6:59 PM CDT
Astronomical Twilight 5:53 AM CDT 7:34 PM CDT
Moon 12:09 AM CDT (10/27) 2:23 PM CDT (10/27)
Length of Visible Light 11h 19m
Length of Day
10h 17m
Last Quarter, 43% of the Moon is Illuminated
Oct 27
Last Quarter
Nov 3
New
Nov 9
First Quarter
Nov 17
Full
Nov 25
Last Quarter

Hourly Weather History & Observations

Time (CDT) Temp. Windchill Dew Point Humidity Pressure Visibility Wind Dir Wind Speed Gust Speed Precip Events Conditions
12:15 AM 35.6 °F 31.7 °F 28.4 °F 75% 29.92 in 10.0 mi SSW 4.6 mph - N/A   Overcast
12:35 AM 35.6 °F 30.7 °F 28.4 °F 75% 29.92 in 10.0 mi SW 5.8 mph - N/A   Overcast
12:55 AM 35.6 °F 30.7 °F 28.4 °F 75% 29.91 in 10.0 mi SSW 5.8 mph - N/A   Overcast
1:15 AM 35.6 °F 31.7 °F 28.4 °F 75% 29.91 in 10.0 mi SW 4.6 mph - N/A   Overcast
1:35 AM 35.6 °F 30.7 °F 28.4 °F 75% 29.90 in 10.0 mi SW 5.8 mph - N/A   Overcast
1:55 AM 35.6 °F 30.7 °F 28.4 °F 75% 29.89 in 10.0 mi SW 5.8 mph - N/A   Overcast
2:15 AM 35.6 °F 31.7 °F 28.4 °F 75% 29.89 in 10.0 mi SW 4.6 mph - N/A   Overcast
2:35 AM 35.6 °F 31.7 °F 28.4 °F 75% 29.88 in 10.0 mi SW 4.6 mph - N/A   Overcast
2:55 AM 35.6 °F 31.7 °F 28.4 °F 75% 29.88 in 10.0 mi SW 4.6 mph - N/A   Overcast
3:15 AM 35.6 °F 30.7 °F 28.4 °F 75% 29.87 in 10.0 mi SW 5.8 mph - N/A   Overcast
3:35 AM 35.6 °F 29.9 °F 28.4 °F 75% 29.86 in 10.0 mi SW 6.9 mph - N/A   Overcast
3:55 AM 35.6 °F 29.2 °F 28.4 °F 75% 29.86 in 10.0 mi SW 8.1 mph - N/A   Overcast
4:15 AM 33.8 °F 28.6 °F 26.6 °F 75% 29.86 in 10.0 mi SW 5.8 mph - N/A   Overcast
4:35 AM 33.8 °F 28.6 °F 26.6 °F 75% 29.86 in 10.0 mi SW 5.8 mph - N/A   Mostly Cloudy
4:55 AM 33.8 °F 27.7 °F 28.4 °F 81% 29.85 in 10.0 mi SW 6.9 mph - N/A   Mostly Cloudy
5:15 AM 33.8 °F 27.0 °F 26.6 °F 75% 29.84 in 10.0 mi SSW 8.1 mph - N/A   Overcast
5:35 AM 33.8 °F 26.4 °F 26.6 °F 75% 29.83 in 10.0 mi SW 9.2 mph - N/A   Overcast
5:55 AM 33.8 °F 27.7 °F 26.6 °F 75% 29.83 in 10.0 mi SW 6.9 mph - N/A   Mostly Cloudy
6:15 AM 33.8 °F 27.7 °F 26.6 °F 75% 29.83 in 10.0 mi SW 6.9 mph - N/A   Mostly Cloudy
6:35 AM 33.8 °F 27.0 °F 26.6 °F 75% 29.82 in 10.0 mi SW 8.1 mph - N/A   Overcast
6:55 AM 33.8 °F 27.0 °F 26.6 °F 75% 29.82 in 10.0 mi SW 8.1 mph - N/A   Mostly Cloudy
7:15 AM 33.8 °F 27.0 °F 26.6 °F 75% 29.80 in 10.0 mi SSW 8.1 mph - N/A   Overcast
7:35 AM 33.8 °F 25.8 °F 26.6 °F 75% 29.80 in 10.0 mi SW 10.4 mph - N/A   Overcast
7:55 AM 33.8 °F 27.0 °F 26.6 °F 75% 29.80 in 10.0 mi SW 8.1 mph - N/A   Overcast
8:15 AM 33.8 °F 25.8 °F 26.6 °F 75% 29.80 in 10.0 mi SW 10.4 mph - N/A   Mostly Cloudy
8:35 AM 35.6 °F 27.1 °F 26.6 °F 70% 29.80 in 10.0 mi SW 12.7 mph - N/A   Scattered Clouds
8:55 AM 35.6 °F 27.5 °F 26.6 °F 70% 29.79 in 10.0 mi SW 11.5 mph - N/A   Partly Cloudy
9:15 AM 35.6 °F 28.6 °F 26.6 °F 70% 29.79 in 10.0 mi SW 9.2 mph 16.1 mph N/A   Mostly Cloudy
9:35 AM 35.6 °F 27.1 °F 26.6 °F 70% 29.79 in 10.0 mi SW 12.7 mph 16.1 mph N/A   Mostly Cloudy
9:55 AM 37.4 °F 28.9 °F 26.6 °F 65% 29.78 in 10.0 mi SW 13.8 mph 18.4 mph N/A   Partly Cloudy
10:15 AM 37.4 °F 28.5 °F 26.6 °F 65% 29.77 in 10.0 mi SW 15.0 mph - N/A   Partly Cloudy
10:35 AM 39.2 °F 32.5 °F 26.6 °F 61% 29.77 in 10.0 mi SSW 10.4 mph - N/A   Mostly Cloudy
10:55 AM 41.0 °F 35.2 °F 26.6 °F 57% 29.76 in 10.0 mi SSW 9.2 mph - N/A   Overcast
11:15 AM 41.0 °F 33.5 °F 26.6 °F 57% 29.76 in 10.0 mi SW 13.8 mph - N/A   Overcast
11:35 AM 42.8 °F 37.5 °F 26.6 °F 53% 29.75 in 10.0 mi SSW 9.2 mph 16.1 mph N/A   Overcast
11:55 AM 42.8 °F 35.1 °F 26.6 °F 53% 29.74 in 10.0 mi SW 16.1 mph - N/A   Overcast
12:15 PM 42.8 °F 36.6 °F 26.6 °F 53% 29.74 in 10.0 mi SSW 11.5 mph 20.7 mph N/A   Overcast
12:35 PM 44.6 °F 38.1 °F 28.4 °F 53% 29.73 in 10.0 mi SW 13.8 mph - N/A   Overcast
12:55 PM 46.4 °F 40.1 °F 28.4 °F 50% 29.73 in 10.0 mi West 15.0 mph - N/A   Overcast
1:15 PM - - - N/A% 29.73 in 10.0 mi West 16.1 mph 23.0 mph N/A   Overcast
1:35 PM 46.4 °F 40.1 °F 30.2 °F 53% 29.74 in 10.0 mi WSW 15.0 mph 21.9 mph N/A   Mostly Cloudy
1:55 PM 44.6 °F 38.4 °F 28.4 °F 53% 29.75 in 10.0 mi West 12.7 mph - N/A   Overcast
2:15 PM 44.6 °F 38.8 °F 30.2 °F 57% 29.75 in 10.0 mi West 11.5 mph - N/A   Scattered Clouds
2:35 PM 44.6 °F 38.1 °F 28.4 °F 53% 29.76 in 10.0 mi WNW 13.8 mph 19.6 mph N/A   Clear
2:55 PM 46.4 °F 41.5 °F 30.2 °F 53% 29.77 in 10.0 mi NW 10.4 mph - N/A   Clear
3:15 PM 44.6 °F 37.4 °F 30.2 °F 57% 29.79 in 10.0 mi NNW 16.1 mph 19.6 mph N/A   Partly Cloudy
3:35 PM 42.8 °F 34.8 °F 28.4 °F 57% 29.81 in 10.0 mi NNW 17.3 mph 21.9 mph N/A   Clear
3:55 PM 42.8 °F 36.6 °F 28.4 °F 57% 29.83 in 10.0 mi NW 11.5 mph - N/A   Mostly Cloudy
4:15 PM 42.8 °F 38.6 °F 28.4 °F 57% 29.84 in 10.0 mi NW 6.9 mph 17.3 mph N/A   Overcast
4:35 PM 42.8 °F 37.0 °F 30.2 °F 61% 29.86 in 10.0 mi NNW 10.4 mph - N/A   Overcast
4:55 PM 41.0 °F 35.2 °F 30.2 °F 65% 29.87 in 10.0 mi NNW 9.2 mph - N/A   Overcast
5:15 PM 41.0 °F 34.7 °F 30.2 °F 65% 29.88 in 10.0 mi NNW 10.4 mph 19.6 mph N/A   Overcast
5:35 PM 41.0 °F 34.3 °F 30.2 °F 65% 29.90 in 10.0 mi North 11.5 mph 17.3 mph N/A   Overcast
5:55 PM 41.0 °F 35.8 °F 30.2 °F 65% 29.92 in 10.0 mi North 8.1 mph - N/A   Overcast
6:15 PM 39.2 °F 33.6 °F 30.2 °F 70% 29.93 in 10.0 mi North 8.1 mph - N/A   Overcast
6:35 PM 39.2 °F 33.0 °F 30.2 °F 70% 29.95 in 10.0 mi North 9.2 mph - N/A   Overcast
6:55 PM 39.2 °F 33.6 °F 30.2 °F 70% 29.96 in 10.0 mi NNW 8.1 mph 17.3 mph N/A   Overcast
7:15 PM 39.2 °F 33.0 °F 30.2 °F 70% 29.97 in 10.0 mi North 9.2 mph 17.3 mph N/A   Overcast
7:35 PM 39.2 °F 32.0 °F 30.2 °F 70% 29.99 in 10.0 mi North 11.5 mph - N/A   Overcast
7:55 PM 39.2 °F 33.0 °F 30.2 °F 70% 30.00 in 10.0 mi North 9.2 mph - N/A   Mostly Cloudy
8:15 PM 39.2 °F 33.6 °F 30.2 °F 70% 30.02 in 10.0 mi North 8.1 mph - N/A   Overcast
8:35 PM 39.2 °F 32.0 °F 30.2 °F 70% 30.03 in 10.0 mi North 11.5 mph 16.1 mph N/A   Overcast
8:55 PM 35.6 °F 27.1 °F 30.2 °F 81% 30.05 in 8.0 mi NNE 12.7 mph 20.7 mph 0.01 in   Overcast
9:15 PM 35.6 °F 26.2 °F 30.2 °F 81% 30.06 in 8.0 mi NNE 15.0 mph 21.9 mph 0.01 in   Overcast
9:35 PM 35.6 °F 27.1 °F 30.2 °F 81% 30.08 in 9.0 mi NNE 12.7 mph 17.3 mph 0.01 in   Overcast
9:55 PM 35.6 °F 28.6 °F 30.2 °F 81% 30.10 in 6.0 mi NNE 9.2 mph - 0.01 in   Overcast
10:15 PM 35.6 °F 29.9 °F 30.2 °F 81% 30.12 in 10.0 mi NNE 6.9 mph 16.1 mph N/A   Overcast
10:35 PM 33.8 °F 25.8 °F 26.6 °F 75% 30.13 in 10.0 mi NE 10.4 mph 16.1 mph N/A   Overcast
10:55 PM 33.8 °F 26.4 °F 26.6 °F 75% 30.14 in 10.0 mi NE 9.2 mph - N/A   Overcast
11:15 PM 33.8 °F 25.3 °F 26.6 °F 75% 30.15 in 10.0 mi NE 11.5 mph 18.4 mph N/A   Overcast
11:35 PM 33.8 °F 25.8 °F 24.8 °F 70% 30.16 in 10.0 mi NE 10.4 mph 18.4 mph N/A   Overcast
11:55 PM 33.8 °F 25.8 °F 24.8 °F 70% 30.17 in 10.0 mi NE 10.4 mph - N/A   Overcast